Simultaneous Nadir Overpasses (SNOs) Predictions

Prediction of SNOs between NOAA-20 and PACE Satellite Orbit:

Table of predicted SNOs for the next 14.0 days since TLE Epoch: 7/20/2024
Index Date (NOAA-20) Time (NOAA-20) Lat,Lon (NOAA-20) SZA (NOAA-20 ) Date (PACE) Time (PACE) Lat,Lon (PACE) SZA (PACE ) Distance(km) Time Diff (sec)
1 07/21/2024 20:39:16 -79.96, 11.95 117.84 07/21/2024 20:39:39 -79.97, 11.84 117.83 2.31 23
2 07/21/2024 21:29:56 79.79,-179.12 61.86 07/21/2024 21:28:44 79.79,-179.10 61.89 0.43 72
3 07/24/2024 01:05:42 -79.95, -54.57 117.41 07/24/2024 01:05:33 -79.94, -54.45 117.42 2.36 9
4 07/26/2024 04:41:26 80.01, 70.82 63.19 07/26/2024 04:42:20 80.01, 70.80 63.17 0.56 54
5 07/26/2024 05:32:06 -79.88,-120.53 117.06 07/26/2024 05:31:25 -79.87,-120.40 117.06 2.75 41
6 07/28/2024 09:07:51 79.99, 4.51 63.63 07/28/2024 09:08:12 79.98, 4.62 63.60 2.37 21
7 07/28/2024 09:58:28 -79.76, 174.03 116.79 07/28/2024 09:57:15 -79.76, 173.98 116.75 1.12 73
8 07/30/2024 13:34:14 79.90, -61.26 63.99 07/30/2024 13:34:02 79.90, -61.22 63.98 0.93 12
9 08/01/2024 17:09:58 -80.00, 63.82 115.29 08/01/2024 17:10:47 -80.01, 63.73 115.30 1.92 49



Historial Predications of SNOs between NOAA-20 and PACE
